This is the latest recevied weather packets stored in our database for station/object DK9XR-14. If no packets are shown the sender has not sent any weather packets the latest 10 day(s).
| Time | Temp. | Humidity | Pressure | Rain* | Wind** | Luminosity | Snow |
|---|---|---|---|---|---|---|---|
| 1777648312 | 21.67° C | 28% | 1025.5 hPa | 0 mm | - | - | - |
| 1777648014 | 21.67° C | 28% | 1025.5 hPa | 0 mm | - | - | - |
| 1777647711 | 21.67° C | 27% | 1025.5 hPa | 0 mm | - | - | - |
| 1777647411 | 21.11° C | 28% | 1025.5 hPa | 0 mm | - | - | - |
| 1777647112 | 21.67° C | 27% | 1025.7 hPa | 0 mm | - | - | - |
| 1777646811 | 21.67° C | 27% | 1025.7 hPa | 0 mm | - | - | - |
| 1777646512 | 21.67° C | 27% | 1025.7 hPa | 0 mm | - | - | - |
| 1777645913 | 22.22° C | 26% | 1025.7 hPa | 0 mm | - | - | - |
| 1777645611 | 21.67° C | 27% | 1025.6 hPa | 0 mm | - | - | - |
| 1777645312 | 21.67° C | 26% | 1025.6 hPa | 0 mm | - | - | - |
| 1777645011 | 21.67° C | 27% | 1025.7 hPa | 0 mm | - | - | - |
| 1777644713 | 21.67° C | 29% | 1025.7 hPa | 0 mm | - | - | - |
| 1777644411 | 21.67° C | 28% | 1025.8 hPa | 0 mm | - | - | - |
| 1777644113 | 21.11° C | 28% | 1025.8 hPa | 0 mm | - | - | - |
| 1777643812 | 21.11° C | 27% | 1025.8 hPa | 0 mm | - | - | - |
| 1777643513 | 21.67° C | 27% | 1026 hPa | 0 mm | - | - | - |
| 1777643207 | 21.67° C | 28% | 1025.9 hPa | 0 mm | - | - | - |
| 1777642909 | 21.67° C | 27% | 1026 hPa | 0 mm | - | - | - |
| 1777642607 | 21.11° C | 27% | 1026.1 hPa | 0 mm | - | - | - |
| 1777642305 | 21.11° C | 28% | 1026.1 hPa | 0 mm | - | - | - |
| 1777642007 | 21.11° C | 27% | 1026.1 hPa | 0 mm | - | - | - |
| 1777641702 | 21.11° C | 28% | 1026.1 hPa | 0 mm | - | - | - |
| 1777641402 | 20.56° C | 28% | 1026.2 hPa | 0 mm | - | - | - |
| 1777641100 | 21.11° C | 27% | 1026.1 hPa | 0 mm | - | - | - |
| 1777640798 | 20.56° C | 28% | 1026.3 hPa | 0 mm | - | - | - |
* Rain latest hour (hover to see other rain measurements)
** Current wind speed in m/s (hover to see current wind gust speed)